Погода в Смидовиче

Погода в Смидовиче : погода сейчас, прогноз погоды и архив. Всё, что Вы хотите узнать о погоде в Смидовиче!

Поиск расширенной информации на нашем сайте:

Другие новости

Новости СМИ2

Главная страница сайта

Новости сайта

03.07.2017

Напоминаем, что на нашем специализированном сайте Метеоцентр.Азия вы можете получить высокодетализированные автоматические прогнозы погоды по пунктам России, СНГ и мира в авиационном формате (включающие направление и скорость ветра, видимость, явления погоды, количество и форму облачности, нижнюю и верхнюю границу облачности).


Погода в Смидовиче - сегодня

Время (UTC), дата Ветер
(°,м/с) 
Видим.   Явления Облачность Т
(°С)
Тd
(°С)
f(%) Тe
(°С)
Pmin
(гПа)
dP
(гПа)
Po
(мм)
O2
(г/м3)
Тmin Tmax R s Состояние
почвы
00 17.02.18 290 (З) 20000 м    ясно 
-18.5 -25.2 56 -19  1012  754  328           
03 17.02.18 350 (С) 20000 м    10/0 верхняя 
[Ci]
-14.3 -22.6 49 -18  1012.8  0.9  755  322           
06 17.02.18 020 (С) 20000 м    3/0 верхняя 
[Ci]
-12.2 -21.9 44 -12  1013.6  0.9  755  320           
09 17.02.18 210 (ЮЗ) 20000 м    ясно 
-17.2 -23.1 60 -20  1015.6  1.8  757  327    -11.6       
12 17.02.18 210 (ЮЗ) 20000 м    ясно 
-20.7 -25 68 -24  1017.3  1.5  758  332           
15 17.02.18 290 (З) 20000 м    ясно 
-18.1 -25 55 -22  1018.2  759  329           
18 17.02.18 250 (З) 20000 м    ясно 
-23.4 -29.6 57 -26  1018.8  0.5  759  336           
00 18.02.18 260 (З) 20000 м    ясно 
-19.1 -26 54 -23  1020.6  1.1  760  331           
03 18.02.18 220 (ЮЗ) 20000 м    ясно 
-15.5 -22.9 53 -19  1020  -0.5  760  326           
06 18.02.18 210 (ЮЗ) 20000 м    ясно 
-13.1 -20.9 52 -18  1019  -1  759  323           
09 18.02.18 200 (Ю) 20000 м    ясно 
-15.5 -22 57 -19  1018.4  -0.6  759  326    -12.8       
12 18.02.18 220 (ЮЗ) 20000 м    ясно 
-19.2 -23.5 69 -23  1018.2  -0.3  759  330           
15 18.02.18 230 (ЮЗ) 20000 м    ясно 
-18.3 -23.3 65 -21  1017.6  -0.6  758  329           
18 18.02.18 240 (ЮЗ) 20000 м    4/0 верхняя 
[Ci fib]
-21.4 -25.6 69 -24  1016.8  -0.9  757  333           
00 19.02.18 240 (ЮЗ) 20000 м    3/0 верхняя 
[Ci fib]
-18 -24.7 56 -21  1015.6  -0.4  757  328           
03 19.02.18 270 (З) 20000 м    3/0 верхняя 
[Ci fib]
-12.3 -20.5 50 -16  1014.7  -0.8  756  321           
06 19.02.18 240 (ЮЗ) 20000 м    ясно 
-10.3 -18.8 50 -15  1013.2  -1.5  755  318           
12 19.02.18 270 (З) 20000 м    ясно 
-14.9 -24.8 43 -20  1014  0.4  755  324           
15 19.02.18 260 (З) 20000 м    3/0 средняя 
[Ac lent]
-16.1 -25.9 43 -20  1013.9  0.1  755  325           
18 19.02.18 230 (ЮЗ) 20000 м    3/0 средняя 
[Ac lent]
-21.5 -28.5 53 -24  1013.3  -0.8  755  332           
00 20.02.18 270 (З) 20000 м    ясно 
-18 -24.8 55 -23  1012.7  0.4  754  327           
03 20.02.18 270 (З) 20000 м    ясно 
-13.5 -22.9 45 -19  1012.4  0.1  754  321           
06 20.02.18 250 (З) 20000 м    3/0 верхняя 
[Ci fib]
-11.8 -21.8 43 -17  1011.9  -0.4  754  319           
12 20.02.18 280 (З) 4{10}  20000 м    ясно 
-16.6 -25.9 44 -22  1014.2  1.3  756  326           
15 20.02.18 280 (З) 20000 м    ясно 
-18.2 -26.7 47 -22  1014.8  0.5  756  328           
Время (UTC), дата Ветер
(°,м/с) 
Видим.   Явления Облачность Т
(°С)
Тd
(°С)
f(%) Тe
(°С)
Pmin
(гПа)
dP
(гПа)
Po
(мм)
O2
(г/м3)
Тmin Tmax R s Состояние
почвы

Для получения пояснительной информации подведите курсор к названию столбца.

ПОГОДА в Смидовиче - архив

Всё, что Вы хотите узнать о погоде в Смидовиче - удобно и подробно!

Выберите нужную дату (начиная с 1 января 2015* года) и нажмите кнопку "Найти".
Будут отображены архивные сводки погоды по пункту Смидович, начиная с указанной даты.


Отображать данные в формате CSV (для использования в таблицах Excel)


Внимание! Наш архив погоды предназначен исключительно для личного некоммерческого использования в познавательных целях. Если Вам необходимы официальные справки о состоянии погоды (для производственных, юридических, коммерческих и т.п. целей), обращайтесь в органы Росгидромета.

*Примечание: данная дата относится к архиву по метеостанциям СССР (Россия, СНГ, Балтия).
Архив по метеостанциям Зарубежной Европы и Азии (кроме Китая) хранится 10 дней, по другим регионам земного шара (Китай, Африка, Америка, Австралия, Океания) - 1 день.

Смидович - район местоположения метеостанции


Название, широта, долгота, высота метеостанции:
Смидович 48.6°ш. 133.8°д. 52 м над ур. моря [Российская Федерация]

Дополнительная информация

В oтличие oт бoльшинства пoгoдных сайтoв мы публикуем пoдрoбную метеoинфoрмацию в детальнoм прoфессиoнальнoм фoрмате.

Характеристики температуры и влажнoсти вoздуха измеряются на высoте 2 м в тени вдали oт зданий и деревьев.
Скoрoсть ветра измеряется на высoте 10 м (на урoвне рoста челoвека скoрoсть ветра ниже в 1.5-2 раза). Если метеoстанция нахoдится в гoрoде или в лесу, тo скoрoсть ветра занижена на 2-4 м/с пo сравнению с oткрытым местoм. Скoрoсть ветра над акватoриями крупных рек и oзёр, а также на вершинах хoлмoв на 2-5 м/с выше, чем в oбычных услoвиях.
Атмoсфернoе давление в разных тoчках местнoсти мoжет значительнo oтличаться oт давления на метеoстанции, в зависимoсти oт услoвий рельефа (при пoдъёме на 10 м давление пoнижается примернo на 1 мм рт.ст.).